DW4273 Weather Reports


Display with metric or nautical units.
time (UTC)temp
F
wind
direction
speed
MPH
gust
MPH
rain 1hr
in
rain 24hr
in
rain mn
in
humidity
%
barometer
mb
20260503195537 59 225 11.0 18.0 0.00 0.00 0.00 40 1011.0
20260503194517 59 248 12.0 18.0 0.00 0.00 0.00 45 1011.2
20260503193517 59 225 10.0 18.0 0.00 0.00 0.00 43 1011.5
20260503192517 59 225 9.0 14.0 0.00 0.00 0.00 43 1011.6
20260503191517 58 225 9.0 15.0 0.00 0.00 0.00 46 1011.8
20260503190517 58 225 13.0 21.0 0.00 0.00 0.00 43 1011.9
20260503185517 58 225 13.0 20.0 0.00 0.00 0.00 44 1012.1
20260503184517 59 225 12.0 18.0 0.00 0.00 0.00 46 1012.2
20260503183517 59 225 13.0 21.0 0.00 0.00 0.00 42 1012.3
20260503182537 59 225 14.0 20.0 0.00 0.00 0.00 42 1012.6
20260503182038 58 248 13.0 22.0 0.00 0.00 0.00 44 1012.7
20260503181017 59 225 13.0 22.0 0.00 0.00 0.00 47 1012.8
20260503180017 58 225 12.0 20.0 0.00 0.00 0.00 45 1012.8
20260503175037 58 225 13.0 22.0 0.00 0.00 0.00 44 1012.9
20260503174037 57 225 13.0 20.0 0.00 0.00 0.00 45 1013.0
20260503173017 58 225 12.0 20.0 0.00 0.00 0.00 49 1013.2
20260503172018 57 248 11.0 16.0 0.00 0.00 0.00 51 1013.2
20260503171037 57 225 12.0 19.0 0.00 0.00 0.00 50 1013.5
20260503130636 45 225 7.0 11.0 0.00 0.00 0.00 55 1014.9
20260503110515 36 203 3.0 5.0 0.00 0.00 0.00 80 1014.1
20260503081016 35 225 3.0 4.0 0.00 0.00 0.00 83 1013.8
20260503072016 35 225 4.0 7.0 0.00 0.00 0.00 85
20260503071016 35 225 3.0 5.0 0.00 0.00 0.00 86
20260503054516 37 248 2.0 3.0 0.00 0.00 0.00 83 1014.1
20260503053556 38 225 2.0 5.0 0.00 0.00 0.00 82 1014.1
20260503052516 38 225 3.0 4.0 0.00 0.00 0.00 82 1014.1
20260503051515 38 225 3.0 4.0 0.00 0.00 0.00 81 1014.1
20260503050516 39 225 3.0 5.0 0.00 0.00 0.00 80 1014.1
20260503045516 39 225 3.0 4.0 0.00 0.00 0.00 80 1014.1
20260503044516 40 225 4.0 6.0 0.00 0.00 0.00 80 1014.2
20260503043556 40 225 3.0 5.0 0.00 0.00 0.00 80 1014.2
20260503042516 40 203 4.0 6.0 0.00 0.00 0.00 79 1014.2
20260503041516 40 225 3.0 4.0 0.00 0.00 0.00 79 1014.2
20260503040516 40 225 3.0 5.0 0.00 0.00 0.00 79 1014.2
20260503035517 40 203 3.0 5.0 0.00 0.00 0.00 78 1014.2
20260503034517 40 203 4.0 6.0 0.00 0.00 0.00 78 1014.2
20260503033515 40 225 3.0 6.0 0.00 0.00 0.00 78 1014.3
20260503032556 40 180 3.0 5.0 0.00 0.00 0.00 78 1014.3
20260503031515 40 203 3.0 4.0 0.00 0.00 0.00 78 1014.4
20260503030515 40 203 2.0 3.0 0.00 0.00 0.00 78 1014.4
20260503025515 40 203 3.0 5.0 0.00 0.00 0.00 77 1014.5
20260503024515 40 203 3.0 5.0 0.00 0.00 0.00 77 1014.5
20260503023515 40 203 3.0 4.0 0.00 0.00 0.00 77 1014.7
20260503022515 40 203 3.0 5.0 0.00 0.00 0.00 77 1014.7
20260503021515 40 203 3.0 4.0 0.00 0.00 0.00 77 1014.7
20260503020515 40 203 1.0 3.0 0.00 0.00 0.00 77 1014.6
20260503015515 40 0.0 0.0 0.00 0.00 0.00 76 1014.5
20260503014556 40 203 2.0 4.0 0.00 0.00 0.00 76 1014.6
20260503013515 41 203 2.0 4.0 0.00 0.00 0.00 76 1014.7
20260503012515 41 180 2.0 4.0 0.00 0.00 0.00 75 1014.6
20260503011556 41 180 1.0 2.0 0.00 0.00 0.00 75 1014.5
20260503010515 41 180 2.0 3.0 0.00 0.00 0.00 74 1014.5
20260503005515 41 225 2.0 4.0 0.00 0.00 0.00 74 1014.4
20260503004515 41 203 2.0 3.0 0.00 0.00 0.00 74 1014.4
20260503003515 41 203 2.0 4.0 0.00 0.00 0.00 73 1014.4
20260503002515 41 225 3.0 4.0 0.00 0.00 0.00 73 1014.5
20260503001515 41 225 3.0 5.0 0.00 0.00 0.00 73 1014.5
20260503000515 42 225 2.0 4.0 0.00 0.00 0.00 73 1014.4
20260502235515 42 225 2.0 4.0 0.00 0.00 0.00 72 1014.4
20260502234515 42 203 2.0 4.0 0.00 0.00 0.00 71 1014.4
20260502233521 42 248 3.0 4.0 0.00 0.00 0.00 69 1014.4
20260502233036 42 248 2.0 4.0 0.00 0.00 0.00 69 1014.4
20260502232056 42 293 2.0 3.0 0.00 0.00 0.00 68 1014.4
20260502231016 42 270 1.0 2.0 0.00 0.00 0.00 68 1014.3
20260502230036 42 293 1.0 2.0 0.00 0.00 0.00 67 1014.3
20260502225015 42 293 1.0 3.0 0.00 0.00 0.00 66 1014.3
20260502224015 42 315 3.0 5.0 0.00 0.00 0.00 64 1014.4
20260502223015 42 293 1.0 2.0 0.00 0.00 0.00 67 1014.4
20260502222036 42 0 2.0 5.0 0.00 0.00 0.00 65 1014.3
20260502221015 42 293 2.0 5.0 0.00 0.00 0.00 66 1014.3
20260502220015 42 293 2.0 4.0 0.00 0.00 0.00 66 1014.4
20260502215016 42 315 2.0 5.0 0.00 0.00 0.00 66 1014.3
20260502214015 42 315 3.0 6.0 0.00 0.00 0.00 65 1014.4
20260502213016 42 315 3.0 5.0 0.00 0.00 0.00 65 1014.3
20260502212015 42 315 3.0 6.0 0.00 0.00 0.00 63 1014.3
20260502211015 43 315 4.0 9.0 0.00 0.00 0.00 63 1014.2
20260502210016 43 315 3.0 7.0 0.00 0.00 0.00 61 1014.2
20260502205016 43 0 4.0 7.0 0.00 0.00 0.00 61 1014.2
20260502204536 44 293 4.0 8.0 0.00 0.00 0.00 60 1014.1
20260502203516 43 0 4.0 7.0 0.00 0.00 0.00 59 1014.1
20260502202516 43 315 3.0 7.0 0.00 0.00 0.00 60 1014.2
20260502201535 43 315 3.0 7.0 0.00 0.00 0.00 60 1014.2
20260502200515 43 293 4.0 8.0 0.00 0.00 0.00 60 1014.3